| time (UTC) | temp F | wind direction | speed knots | gust knots | rain 1hr in | rain 24hr in | rain mn in | humidity % | barometer mb |
| 20260503070329 | 38 | 7 | 0.0 | 0.0 | 0.00 | 0.00 | 0.00 | 91 | 979.4 |
| 20260503060321 | 36 | 8 | 0.0 | 0.0 | 0.00 | 0.00 | 0.00 | 91 | 980.0 |
| 20260503054818 | 36 | 8 | 0.0 | 0.0 | 0.00 | 0.00 | 0.00 | 91 | 980.2 |
| 20260503054317 | 36 | 8 | 0.0 | 0.0 | 0.00 | 0.00 | 0.00 | 90 | 980.2 |
| 20260503053817 | 36 | 8 | 0.0 | 0.0 | 0.00 | 0.00 | 0.00 | 90 | 980.3 |
| 20260503053316 | 36 | 8 | 0.0 | 0.0 | 0.00 | 0.00 | 0.00 | 89 | 980.3 |
| 20260503052815 | 37 | 8 | 0.0 | 0.0 | 0.00 | 0.00 | 0.00 | 89 | 980.2 |
| 20260503052315 | 37 | 8 | 0.0 | 0.0 | 0.00 | 0.00 | 0.00 | 88 | 980.2 |
| 20260503051814 | 38 | 8 | 0.0 | 0.0 | 0.00 | 0.00 | 0.00 | 88 | 980.3 |
| 20260503051313 | 38 | 8 | 0.0 | 0.0 | 0.00 | 0.00 | 0.00 | 89 | 980.3 |
| 20260503050812 | 38 | 8 | 0.0 | 0.0 | 0.00 | 0.00 | 0.00 | 89 | 980.5 |
| 20260503050312 | 38 | 8 | 0.0 | 0.0 | 0.00 | 0.00 | 0.00 | 88 | 980.4 |
| 20260503045811 | 38 | 8 | 0.0 | 0.0 | 0.00 | 0.00 | 0.00 | 88 | 980.4 |
| 20260503045310 | 38 | 8 | 0.0 | 0.0 | 0.00 | 0.00 | 0.00 | 87 | 980.5 |
| 20260503044809 | 38 | 8 | 0.0 | 0.0 | 0.00 | 0.00 | 0.00 | 87 | 980.5 |
| 20260503044309 | 38 | 8 | 0.0 | 0.0 | 0.00 | 0.00 | 0.00 | 87 | 980.4 |
| 20260503043808 | 38 | 8 | 0.0 | 0.0 | 0.00 | 0.00 | 0.00 | 87 | 980.5 |
| 20260503043307 | 39 | 8 | 0.0 | 0.0 | 0.00 | 0.00 | 0.00 | 86 | 980.7 |
| 20260503042806 | 39 | 8 | 0.0 | 0.0 | 0.00 | 0.00 | 0.00 | 86 | 980.7 |
| 20260503042306 | 39 | 9 | 0.0 | 0.0 | 0.00 | 0.00 | 0.00 | 86 | 980.7 |
| 20260503041805 | 39 | 9 | 0.0 | 0.0 | 0.00 | 0.00 | 0.00 | 86 | 980.6 |
| 20260503041304 | 39 | 9 | 0.0 | 0.0 | 0.00 | 0.00 | 0.00 | 86 | 981.0 |
| 20260503040804 | 39 | 9 | 0.0 | 0.0 | 0.00 | 0.00 | 0.00 | 86 | 980.9 |
| 20260503040303 | 39 | 9 | 0.0 | 0.0 | 0.00 | 0.00 | 0.00 | 86 | 980.9 |
| 20260503035802 | 39 | 9 | 0.0 | 0.0 | 0.00 | 0.00 | 0.00 | 86 | 981.0 |
| 20260503035304 | 39 | 9 | 0.0 | 0.0 | 0.00 | 0.00 | 0.00 | 86 | 981.0 |
| 20260503034801 | 40 | 9 | 0.0 | 0.0 | 0.00 | 0.00 | 0.00 | 85 | 981.1 |
| 20260503034300 | 40 | 9 | 0.0 | 0.0 | 0.00 | 0.00 | 0.00 | 85 | 981.2 |
| 20260503033759 | 40 | 9 | 0.0 | 0.0 | 0.00 | 0.00 | 0.00 | 84 | 981.2 |
| 20260503033259 | 40 | 9 | 0.0 | 0.0 | 0.00 | 0.00 | 0.00 | 84 | 981.1 |
| 20260503032758 | 40 | 9 | 0.0 | 0.0 | 0.00 | 0.00 | 0.00 | 84 | 981.2 |
| 20260503032257 | 41 | 9 | 0.0 | 0.0 | 0.00 | 0.00 | 0.00 | 83 | 981.3 |
| 20260503031757 | 41 | 9 | 0.0 | 0.0 | 0.00 | 0.00 | 0.00 | 83 | 981.2 |
| 20260503031256 | 41 | 9 | 0.0 | 0.0 | 0.00 | 0.00 | 0.00 | 81 | 981.2 |
| 20260503030755 | 41 | 9 | 0.0 | 0.0 | 0.00 | 0.00 | 0.00 | 81 | 981.4 |
| 20260503030254 | 42 | 9 | 0.0 | 0.0 | 0.00 | 0.00 | 0.00 | 81 | 981.3 |
| 20260503025753 | 42 | 9 | 0.0 | 0.0 | 0.00 | 0.00 | 0.00 | 81 | 981.3 |
| 20260503025252 | 42 | 9 | 0.0 | 0.0 | 0.00 | 0.00 | 0.00 | 81 | 981.4 |
| 20260503024752 | 43 | 9 | 0.0 | 0.0 | 0.00 | 0.00 | 0.00 | 79 | 981.3 |
| 20260503024251 | 43 | 8 | 0.0 | 0.0 | 0.00 | 0.00 | 0.00 | 78 | 981.2 |
| 20260503023750 | 43 | 8 | 0.0 | 0.0 | 0.00 | 0.00 | 0.00 | 78 | 981.5 |
| 20260503023249 | 43 | 9 | 0.0 | 0.0 | 0.00 | 0.00 | 0.00 | 78 | 981.4 |
| 20260503022748 | 44 | 9 | 0.0 | 0.0 | 0.00 | 0.00 | 0.00 | 78 | 981.4 |
| 20260503022247 | 44 | 9 | 0.0 | 0.0 | 0.00 | 0.00 | 0.00 | 76 | 981.5 |
| 20260503021746 | 44 | 9 | 0.0 | 0.0 | 0.00 | 0.00 | 0.00 | 76 | 981.4 |
| 20260503021246 | 44 | 9 | 0.0 | 0.0 | 0.00 | 0.00 | 0.00 | 76 | 981.6 |
| 20260503020745 | 45 | 9 | 0.0 | 0.0 | 0.00 | 0.00 | 0.00 | 74 | 981.5 |
| 20260503020244 | 45 | 9 | 0.0 | 0.0 | 0.00 | 0.00 | 0.00 | 73 | 981.3 |
| 20260503015743 | 45 | 8 | 0.0 | 0.0 | 0.00 | 0.00 | 0.00 | 72 | 981.3 |
| 20260503015243 | 46 | 9 | 0.0 | 0.0 | 0.00 | 0.00 | 0.00 | 73 | 981.3 |
| 20260503014742 | 46 | 9 | 0.0 | 0.0 | 0.00 | 0.00 | 0.00 | 70 | 981.4 |
| 20260503014241 | 47 | 9 | 0.0 | 0.0 | 0.00 | 0.00 | 0.00 | 69 | 981.3 |
| 20260503013740 | 47 | 9 | 0.0 | 0.0 | 0.00 | 0.00 | 0.00 | 65 | 981.3 |
| 20260503013240 | 48 | 9 | 0.0 | 0.0 | 0.00 | 0.00 | 0.00 | 64 | 981.3 |
| 20260503012739 | 49 | 9 | 0.0 | 0.0 | 0.00 | 0.00 | 0.00 | 65 | 981.3 |
| 20260503012238 | 49 | 12 | 0.0 | 0.0 | 0.00 | 0.00 | 0.00 | 61 | 981.2 |
| 20260503011738 | 50 | 12 | 0.0 | 0.0 | 0.00 | 0.00 | 0.00 | 58 | 981.2 |
| 20260503011237 | 50 | 12 | 0.0 | 0.0 | 0.00 | 0.00 | 0.00 | 55 | 981.2 |
| 20260503010736 | 51 | 12 | 0.0 | 0.0 | 0.00 | 0.00 | 0.00 | 56 | 981.3 |
| 20260503010235 | 52 | 14 | 0.0 | 0.0 | 0.00 | 0.00 | 0.00 | 52 | 981.1 |
| 20260503005735 | 53 | 17 | 0.0 | 0.0 | 0.00 | 0.00 | 0.00 | 51 | 981.4 |
| 20260503005234 | 54 | 2 | 0.0 | 0.0 | 0.00 | 0.00 | 0.00 | 46 | 981.2 |
| 20260503004733 | 55 | 11 | 0.0 | 0.0 | 0.00 | 0.00 | 0.00 | 47 | 981.3 |
| 20260503004232 | 56 | 9 | 0.0 | 0.0 | 0.00 | 0.00 | 0.00 | 40 | 981.2 |
| 20260503003731 | 56 | 8 | 0.0 | 0.0 | 0.00 | 0.00 | 0.00 | 39 | 981.5 |
| 20260503003230 | 56 | 356 | 0.0 | 0.0 | 0.00 | 0.00 | 0.00 | 40 | 981.3 |
| 20260503002729 | 57 | 24 | 0.0 | 0.0 | 0.00 | 0.00 | 0.00 | 36 | 981.4 |
| 20260503002228 | 57 | 348 | 0.0 | 0.0 | 0.00 | 0.00 | 0.00 | 36 | 981.4 |
| 20260503001726 | 58 | 342 | 0.0 | 0.0 | 0.00 | 0.00 | 0.00 | 37 | 981.4 |
| 20260503001226 | 58 | 9 | 0.0 | 0.0 | 0.00 | 0.00 | 0.00 | 35 | 981.7 |
| 20260503000725 | 58 | 2 | 0.0 | 0.0 | 0.00 | 0.00 | 0.00 | 35 | 981.5 |
| 20260503000225 | 58 | 17 | 0.0 | 0.0 | 0.00 | 0.00 | 0.00 | 35 | 981.6 |
| 20260502235724 | 59 | 19 | 0.0 | 0.0 | 0.00 | 0.00 | 0.00 | 35 | 981.6 |
| 20260502235222 | 59 | 359 | 0.0 | 0.0 | 0.00 | 0.00 | 0.00 | 35 | 981.5 |
| 20260502234722 | 60 | 354 | 0.0 | 0.0 | 0.00 | 0.00 | 0.00 | 34 | 981.7 |
| 20260502234221 | 60 | 287 | 0.0 | 0.0 | 0.00 | 0.00 | 0.00 | 35 | 981.7 |
| 20260502233720 | 60 | 277 | 0.9 | 0.9 | 0.00 | 0.00 | 0.00 | 33 | 981.5 |
| 20260502233220 | 60 | 333 | 0.9 | 1.7 | 0.00 | 0.00 | 0.00 | 33 | 981.7 |
| 20260502232719 | 60 | 292 | 1.7 | 2.6 | 0.00 | 0.00 | 0.00 | 33 | 981.7 |
| 20260502232219 | 60 | 286 | 0.9 | 1.7 | 0.00 | 0.00 | 0.00 | 32 | 981.8 |
| 20260502231718 | 61 | 6 | 0.0 | 0.0 | 0.00 | 0.00 | 0.00 | 31 | 981.8 |
| 20260502231217 | 61 | 330 | 0.9 | 0.9 | 0.00 | 0.00 | 0.00 | 31 | 981.8 |
| 20260502230716 | 61 | 253 | 0.0 | 0.9 | 0.00 | 0.00 | 0.00 | 32 | 982.0 |
| 20260502230215 | 61 | 293 | 0.0 | 0.0 | 0.00 | 0.00 | 0.00 | 35 | 982.0 |
| 20260502225715 | 61 | 314 | 0.0 | 0.9 | 0.00 | 0.00 | 0.00 | 33 | 982.2 |
| 20260502225214 | 62 | 10 | 0.0 | 0.0 | 0.00 | 0.00 | 0.00 | 31 | 982.1 |
| 20260502224713 | 62 | 288 | 0.9 | 0.9 | 0.00 | 0.00 | 0.00 | 32 | 982.0 |
| 20260502224212 | 62 | 322 | 0.9 | 0.9 | 0.00 | 0.00 | 0.00 | 31 | 982.1 |
| 20260502223711 | 62 | 1 | 0.0 | 0.0 | 0.00 | 0.00 | 0.00 | 31 | 982.2 |
| 20260502223211 | 62 | 263 | 2.6 | 2.6 | 0.00 | 0.00 | 0.00 | 32 | 982.3 |
| 20260502222710 | 62 | 330 | 0.0 | 0.0 | 0.00 | 0.00 | 0.00 | 33 | 982.3 |
| 20260502222209 | 62 | 356 | 1.7 | 2.6 | 0.00 | 0.00 | 0.00 | 32 | 982.3 |
| 20260502221708 | 62 | 301 | 0.9 | 0.9 | 0.00 | 0.00 | 0.00 | 31 | 982.4 |
| 20260502221208 | 63 | 22 | 0.0 | 0.0 | 0.00 | 0.00 | 0.00 | 31 | 982.4 |
| 20260502220707 | 63 | 316 | 0.0 | 0.9 | 0.00 | 0.00 | 0.00 | 31 | 982.5 |
| 20260502220206 | 63 | 348 | 0.0 | 0.0 | 0.00 | 0.00 | 0.00 | 32 | 982.6 |
| 20260502215706 | 61 | 11 | 0.0 | 0.0 | 0.00 | 0.00 | 0.00 | 33 | 982.6 |
| 20260502215205 | 62 | 260 | 2.6 | 2.6 | 0.00 | 0.00 | 0.00 | 31 | 982.5 |
| 20260502214704 | 62 | 304 | 1.7 | 1.7 | 0.00 | 0.00 | 0.00 | 33 | 982.6 |
| 20260502214204 | 62 | 292 | 1.7 | 5.2 | 0.00 | 0.00 | 0.00 | 31 | 982.7 |
| 20260502213703 | 64 | 328 | 0.0 | 0.0 | 0.00 | 0.00 | 0.00 | 32 | 982.7 |
| 20260502213202 | 62 | 286 | 0.0 | 0.0 | 0.00 | 0.00 | 0.00 | 33 | 982.7 |
| 20260502212701 | 62 | 255 | 0.9 | 1.7 | 0.00 | 0.00 | 0.00 | 31 | 982.8 |
| 20260502212201 | 63 | 236 | 0.9 | 1.7 | 0.00 | 0.00 | 0.00 | 32 | 982.9 |
| 20260502211700 | 62 | 27 | 1.7 | 2.6 | 0.00 | 0.00 | 0.00 | 34 | 982.9 |
| 20260502211159 | 60 | 228 | 0.0 | 0.9 | 0.00 | 0.00 | 0.00 | 33 | 983.0 |
| 20260502210659 | 60 | 335 | 0.0 | 0.0 | 0.00 | 0.00 | 0.00 | 33 | 983.1 |
| 20260502210158 | 62 | 276 | 0.9 | 1.7 | 0.00 | 0.00 | 0.00 | 32 | 983.1 |
| 20260502205657 | 60 | 306 | 1.7 | 2.6 | 0.00 | 0.00 | 0.00 | 34 | 983.1 |
| 20260502205156 | 62 | 2 | 0.0 | 0.9 | 0.00 | 0.00 | 0.00 | 31 | 983.0 |
| 20260502204655 | 62 | 252 | 0.0 | 0.0 | 0.00 | 0.00 | 0.00 | 31 | 983.1 |
| 20260502204155 | 62 | 12 | 0.0 | 0.0 | 0.00 | 0.00 | 0.00 | 31 | 983.3 |
| 20260502203653 | 63 | 333 | 0.0 | 0.0 | 0.00 | 0.00 | 0.00 | 30 | 983.3 |
| 20260502203153 | 63 | 201 | 1.7 | 2.6 | 0.00 | 0.00 | 0.00 | 32 | 983.4 |
| 20260502202652 | 63 | 4 | 0.0 | 0.0 | 0.00 | 0.00 | 0.00 | 30 | 983.6 |
| 20260502202151 | 62 | 256 | 0.0 | 0.0 | 0.00 | 0.00 | 0.00 | 33 | 983.6 |
| 20260502201650 | 60 | 206 | 0.0 | 0.9 | 0.00 | 0.00 | 0.00 | 34 | 983.7 |
| 20260502201150 | 61 | 338 | 1.7 | 2.6 | 0.00 | 0.00 | 0.00 | 32 | 983.7 |
| 20260502200649 | 61 | 347 | 0.0 | 0.0 | 0.00 | 0.00 | 0.00 | 30 | 983.6 |
| 20260502200148 | 59 | 344 | 1.7 | 3.5 | 0.00 | 0.00 | 0.00 | 33 | 983.7 |
| 20260502195647 | 60 | 325 | 1.7 | 2.6 | 0.00 | 0.00 | 0.00 | 33 | 984.0 |
| 20260502195146 | 60 | 289 | 0.9 | 0.9 | 0.00 | 0.00 | 0.00 | 34 | 984.0 |
| 20260502194646 | 59 | 349 | 0.9 | 1.7 | 0.00 | 0.00 | 0.00 | 35 | 984.1 |
| 20260502194145 | 60 | 243 | 1.7 | 2.6 | 0.00 | 0.00 | 0.00 | 32 | 984.4 |
| 20260502193644 | 59 | 283 | 0.9 | 1.7 | 0.00 | 0.00 | 0.00 | 34 | 984.4 |
| 20260502193143 | 60 | 293 | 0.0 | 0.0 | 0.00 | 0.00 | 0.00 | 33 | 984.4 |
| 20260502192643 | 60 | 325 | 1.7 | 2.6 | 0.00 | 0.00 | 0.00 | 33 | 984.5 |
| 20260502192142 | 59 | 295 | 0.9 | 0.9 | 0.00 | 0.00 | 0.00 | 35 | 984.2 |
| 20260502191641 | 59 | 312 | 0.9 | 1.7 | 0.00 | 0.00 | 0.00 | 31 | 984.5 |
| 20260502191140 | 58 | 313 | 0.0 | 0.9 | 0.00 | 0.00 | 0.00 | 34 | 984.7 |
| 20260502190640 | 58 | 334 | 0.9 | 0.9 | 0.00 | 0.00 | 0.00 | 37 | 984.6 |
| 20260502190139 | 60 | 2 | 4.3 | 7.0 | 0.00 | 0.00 | 0.00 | 31 | 984.8 |
| 20260502185638 | 60 | 240 | 0.9 | 1.7 | 0.00 | 0.00 | 0.00 | 34 | 984.7 |
| 20260502185138 | 61 | 265 | 1.7 | 1.7 | 0.00 | 0.00 | 0.00 | 34 | 984.8 |
| 20260502184637 | 61 | 13 | 0.9 | 1.7 | 0.00 | 0.00 | 0.00 | 34 | 985.1 |
| 20260502184136 | 60 | 292 | 0.9 | 1.7 | 0.00 | 0.00 | 0.00 | 35 | 984.8 |
| 20260502183636 | 61 | 300 | 1.7 | 2.6 | 0.00 | 0.00 | 0.00 | 33 | 984.9 |
| 20260502183135 | 60 | 338 | 0.0 | 0.9 | 0.00 | 0.00 | 0.00 | 35 | 985.0 |
| 20260502182635 | 61 | 358 | 0.9 | 2.6 | 0.00 | 0.00 | 0.00 | 31 | 985.1 |
| 20260502182134 | 60 | 233 | 5.2 | 6.1 | 0.00 | 0.00 | 0.00 | 32 | 985.2 |
| 20260502181633 | 59 | 356 | 5.2 | 7.0 | 0.00 | 0.00 | 0.00 | 34 | 985.1 |
| 20260502181132 | 58 | 11 | 0.0 | 0.0 | 0.00 | 0.00 | 0.00 | 37 | 985.3 |
| 20260502180632 | 58 | 246 | 1.7 | 2.6 | 0.00 | 0.00 | 0.00 | 37 | 985.5 |
| 20260502180131 | 58 | 354 | 0.0 | 0.0 | 0.00 | 0.00 | 0.00 | 38 | 985.5 |
| 20260502170121 | 59 | 319 | 0.0 | 0.0 | 0.00 | 0.00 | 0.00 | 33 | 985.9 |
| 20260502164118 | 59 | 259 | 0.0 | 0.0 | 0.00 | 0.00 | 0.00 | 35 | 985.9 |
| 20260502163617 | 58 | 279 | 0.9 | 2.6 | 0.00 | 0.00 | 0.00 | 36 | 986.2 |
| 20260502163117 | 57 | 68 | 0.0 | 0.0 | 0.00 | 0.00 | 0.00 | 38 | 986.2 |
| 20260502162616 | 57 | 260 | 2.6 | 5.2 | 0.00 | 0.00 | 0.00 | 37 | 986.3 |
| 20260502162115 | 57 | 222 | 3.5 | 3.5 | 0.00 | 0.00 | 0.00 | 35 | 986.6 |
| 20260502161614 | 58 | 350 | 1.7 | 2.6 | 0.00 | 0.00 | 0.00 | 35 | 986.6 |
| 20260502161113 | 57 | 205 | 1.7 | 3.5 | 0.00 | 0.00 | 0.00 | 37 | 986.4 |
| 20260502160613 | 57 | 348 | 2.6 | 3.5 | 0.00 | 0.00 | 0.00 | 35 | 986.4 |
| 20260502160112 | 56 | 359 | 5.2 | 9.6 | 0.00 | 0.00 | 0.00 | 37 | 986.5 |
| 20260502152106 | 55 | 275 | 0.0 | 0.0 | 0.00 | 0.00 | 0.00 | 40 | 987.1 |
| 20260502151605 | 54 | 266 | 0.0 | 1.7 | 0.00 | 0.00 | 0.00 | 41 | 987.1 |
| 20260502151105 | 54 | 290 | 0.0 | 0.0 | 0.00 | 0.00 | 0.00 | 41 | 986.8 |
| 20260502150604 | 54 | 237 | 1.7 | 2.6 | 0.00 | 0.00 | 0.00 | 42 | 986.8 |
| 20260502150103 | 54 | 340 | 0.0 | 0.0 | 0.00 | 0.00 | 0.00 | 43 | 986.8 |
| 20260502130546 | 40 | 43 | 0.0 | 0.0 | 0.00 | 0.00 | 0.00 | 72 | 987.7 |
| 20260502123541 | 33 | 42 | 0.0 | 0.0 | 0.00 | 0.00 | 0.00 | 86 | 987.7 |
| 20260502123040 | 33 | 41 | 0.0 | 0.0 | 0.00 | 0.00 | 0.00 | 86 | 987.7 |
| 20260502122540 | 32 | 34 | 0.0 | 0.0 | 0.00 | 0.00 | 0.00 | 87 | 988.0 |
| 20260502122039 | 32 | 14 | 0.0 | 0.0 | 0.00 | 0.00 | 0.00 | 87 | 987.7 |
| 20260502121538 | 32 | 13 | 0.0 | 0.0 | 0.00 | 0.00 | 0.00 | 88 | 987.7 |
| 20260502121038 | 32 | 14 | 0.0 | 0.0 | 0.00 | 0.00 | 0.00 | 89 | 987.8 |
| 20260502120537 | 31 | 15 | 0.0 | 0.0 | 0.00 | 0.00 | 0.00 | 90 | 987.9 |
| 20260502115536 | 31 | 15 | 0.0 | 0.0 | 0.00 | 0.00 | 0.00 | 92 | 987.7 |
| 20260502115035 | 30 | 15 | 0.0 | 0.0 | 0.00 | 0.00 | 0.00 | 92 | 987.8 |
| 20260502114534 | 30 | 9 | 0.0 | 0.0 | 0.00 | 0.00 | 0.00 | 92 | 987.6 |
| 20260502114034 | 30 | 9 | 0.0 | 0.0 | 0.00 | 0.00 | 0.00 | 93 | 987.6 |
| 20260502113533 | 30 | 9 | 0.0 | 0.0 | 0.00 | 0.00 | 0.00 | 93 | 987.5 |
| 20260502113032 | 29 | 1 | 0.0 | 0.0 | 0.00 | 0.00 | 0.00 | 93 | 987.6 |
| 20260502112531 | 29 | 28 | 0.0 | 0.0 | 0.00 | 0.00 | 0.00 | 94 | 987.3 |
| 20260502112031 | 29 | 27 | 0.0 | 0.0 | 0.00 | 0.00 | 0.00 | 94 | 987.4 |
| 20260502111530 | 29 | 35 | 0.0 | 0.0 | 0.00 | 0.00 | 0.00 | 94 | 987.4 |
| 20260502111029 | 29 | 36 | 0.0 | 0.0 | 0.00 | 0.00 | 0.00 | 94 | 987.6 |
| 20260502110529 | 28 | 32 | 0.0 | 0.0 | 0.00 | 0.00 | 0.00 | 94 | 987.5 |
| 20260502110028 | 28 | 31 | 0.0 | 0.0 | 0.00 | 0.00 | 0.00 | 94 | 987.5 |
| 20260502105527 | 28 | 32 | 0.0 | 0.0 | 0.00 | 0.00 | 0.00 | 93 | 987.5 |
| 20260502105027 | 28 | 32 | 0.0 | 0.0 | 0.00 | 0.00 | 0.00 | 93 | 987.4 |
| 20260502104526 | 28 | 32 | 0.0 | 0.0 | 0.00 | 0.00 | 0.00 | 93 | 987.6 |
| 20260502104025 | 28 | 358 | 0.0 | 0.0 | 0.00 | 0.00 | 0.00 | 93 | 987.3 |
| 20260502103525 | 28 | 358 | 0.0 | 0.0 | 0.00 | 0.00 | 0.00 | 93 | 987.4 |
| 20260502103024 | 28 | 358 | 0.0 | 0.0 | 0.00 | 0.00 | 0.00 | 93 | 987.3 |
| 20260502102523 | 28 | 358 | 0.0 | 0.0 | 0.00 | 0.00 | 0.00 | 93 | 987.4 |
| 20260502102023 | 28 | 358 | 0.0 | 0.0 | 0.00 | 0.00 | 0.00 | 93 | 987.3 |
| 20260502101522 | 28 | 358 | 0.0 | 0.0 | 0.00 | 0.00 | 0.00 | 93 | 987.4 |
| 20260502101021 | 28 | 358 | 0.0 | 0.0 | 0.00 | 0.00 | 0.00 | 93 | 987.3 |
| 20260502100521 | 28 | 358 | 0.0 | 0.0 | 0.00 | 0.00 | 0.00 | 93 | 987.3 |
| 20260502091514 | 29 | 358 | 0.0 | 0.0 | 0.00 | 0.00 | 0.00 | 92 | 987.4 |
| 20260502091013 | 29 | 358 | 0.0 | 0.0 | 0.00 | 0.00 | 0.00 | 92 | 987.3 |
| 20260502090512 | 29 | 358 | 0.0 | 0.0 | 0.00 | 0.00 | 0.00 | 92 | 987.3 |
| 20260502071457 | 28 | 358 | 0.0 | 0.0 | 0.00 | 0.00 | 0.00 | 91 | 987.4 |
| 20260502070956 | 28 | 358 | 0.0 | 0.0 | 0.00 | 0.00 | 0.00 | 91 | 987.4 |
| 20260502070455 | 28 | 357 | 0.0 | 0.0 | 0.00 | 0.00 | 0.00 | 91 | 987.4 |